Terminal Aerodrome Forecast
Issued by NWS

Home | Current Version | Previous Version | Text Only | Print | Product List | Glossary On
Versions: 1 2 3 4 5 6 7 8 9 10 11 12 13 14 15 16 17 18 19 20 21 22 23 24 25 26 27 28 29 30 31 32 33 34 35 36 37 38 39 40
000
FTUS45 KBOU 221542 AAB
TAFAPA
TAF AMD
KAPA 221542Z 2216/2312 22006KT P6SM FEW120 SCT200
     FM221800 03012G20KT P6SM SCT090 BKN200
     FM222200 06014G22KT P6SM SCT090 BKN200
      TEMPO 2222/2302 VRB15G30KT -TSRA BKN060CB
     FM230300 11011KT P6SM VCSH SCT060 BKN090
     FM230700 06011KT P6SM VCSH BKN020 OVC040
     FM231000 02010KT 4SM BR BKN006 OVC012=

USA.gov is the U.S. government's official web portal to all federal, state and local government web resources and services.